2023/09/17 00:00:00,61.4,21.5
2023/09/17 00:10:00,61.5,21.5
2023/09/17 00:20:00,61.4,21.6
2023/09/17 00:30:00,61.4,21.2
2023/09/17 00:40:00,61.4,21.2
2023/09/17 00:50:00,61.3,21.3
2023/09/17 01:00:00,61.4,20.9
2023/09/17 01:10:00,61.4,21.0
2023/09/17 01:20:00,61.2,20.8
2023/09/17 01:30:00,61.2,20.8
2023/09/17 01:40:00,61.3,20.9
2023/09/17 01:50:00,61.3,20.8
2023/09/17 02:00:00,61.4,20.6
2023/09/17 02:10:00,61.5,20.7
2023/09/17 02:20:00,61.6,20.5
2023/09/17 02:30:00,62.1,20.9
2023/09/17 02:40:00,62.3,20.7
2023/09/17 02:50:00,62.7,20.7
2023/09/17 03:00:00,62.0,20.8
2023/09/17 03:10:00,62.1,20.7
2023/09/17 03:20:00,61.4,20.6
2023/09/17 03:30:00,61.3,20.5
2023/09/17 03:40:00,61.1,20.6
2023/09/17 03:50:00,61.0,20.3
2023/09/17 04:00:00,61.2,20.5
2023/09/17 04:10:00,61.2,20.4
2023/09/17 04:20:00,61.9,20.7
2023/09/17 04:30:00,61.6,20.8
2023/09/17 04:40:00,61.8,20.8
2023/09/17 04:50:00,61.4,20.6
2023/09/17 05:00:00,61.6,20.7
2023/09/17 05:10:00,61.6,20.9
2023/09/17 05:20:00,61.7,20.9
2023/09/17 05:30:00,61.3,20.8
2023/09/17 05:40:00,61.3,20.7
2023/09/17 05:50:00,60.9,20.7
2023/09/17 06:00:00,60.7,20.8
2023/09/17 06:10:00,60.6,20.8
2023/09/17 06:20:00,60.5,21.2
2023/09/17 06:30:00,59.7,21.5
2023/09/17 06:40:00,58.5,21.6
2023/09/17 06:50:00,58.5,21.7
2023/09/17 07:00:00,57.7,22.0
2023/09/17 07:10:00,57.9,22.1
2023/09/17 07:20:00,57.8,22.2
2023/09/17 07:30:00,57.6,22.4
2023/09/17 07:40:00,57.7,22.3
2023/09/17 07:50:00,57.8,23.0
2023/09/17 08:00:00,57.5,23.0
2023/09/17 08:10:00,57.5,23.5
2023/09/17 08:20:00,57.5,24.0
2023/09/17 08:30:00,57.4,24.3
2023/09/17 08:40:00,57.5,24.4
2023/09/17 08:50:00,57.3,24.6
2023/09/17 09:00:00,56.9,24.7
2023/09/17 09:10:00,57.0,24.9
2023/09/17 09:20:00,57.2,25.4
2023/09/17 09:30:00,---,25.4
2023/09/17 09:40:00,---,25.8
2023/09/17 09:50:00,54.7,26.5
2023/09/17 10:00:00,---,25.6
2023/09/17 10:10:00,56.5,26.2
2023/09/17 10:20:00,---,26.5
2023/09/17 10:30:00,42.2,27.0
2023/09/17 10:40:00,42.3,27.3
2023/09/17 10:50:00,39.2,27.2
2023/09/17 11:00:00,17.9,27.1
2023/09/17 11:10:00,---,27.9
2023/09/17 11:20:00,---,28.5
2023/09/17 11:30:00, 0.0,28.1
2023/09/17 11:40:00, 0.0,28.5
2023/09/17 11:50:00, 0.0,28.5
2023/09/17 12:00:00, 0.2,29.4
2023/09/17 12:10:00, 0.5,30.0
2023/09/17 12:20:00, 0.4,30.4
2023/09/17 12:30:00, 0.3,31.2
2023/09/17 12:40:00, 0.4,30.3
2023/09/17 12:50:00, 0.1,29.0
2023/09/17 13:00:00, 7.9,29.0
2023/09/17 13:10:00,23.9,28.6
2023/09/17 13:20:00,---,29.7
2023/09/17 13:30:00, 9.3,29.0
2023/09/17 13:40:00,23.1,27.6
2023/09/17 13:50:00,44.4,27.0
2023/09/17 14:00:00,55.0,27.5
2023/09/17 14:10:00,54.7,27.5
2023/09/17 14:20:00,54.2,27.2
2023/09/17 14:30:00,54.1,27.4
2023/09/17 14:40:00,54.6,27.7
2023/09/17 14:50:00,51.0,27.4
2023/09/17 15:00:00,52.7,27.8
2023/09/17 15:10:00,53.5,26.5
2023/09/17 15:20:00,54.1,27.0
2023/09/17 15:30:00,---,27.6
2023/09/17 15:40:00,---,27.2
2023/09/17 15:50:00,44.1,26.2
2023/09/17 16:00:00,53.7,26.5
2023/09/17 16:10:00,55.3,26.2
2023/09/17 16:20:00,55.0,26.7
2023/09/17 16:30:00,55.3,26.3
2023/09/17 16:40:00,56.1,25.2
2023/09/17 16:50:00,56.8,25.3
2023/09/17 17:00:00,56.7,25.0
2023/09/17 17:10:00,57.0,25.0
2023/09/17 17:20:00,57.0,24.7
2023/09/17 17:30:00,57.0,24.4
2023/09/17 17:40:00,57.0,24.0
2023/09/17 17:50:00,57.1,23.3
2023/09/17 18:00:00,57.4,23.3
2023/09/17 18:10:00,57.6,23.2
2023/09/17 18:20:00,57.6,22.8
2023/09/17 18:30:00,57.6,22.6
2023/09/17 18:40:00,57.6,22.5
2023/09/17 18:50:00,57.6,22.3
2023/09/17 19:00:00,57.6,22.0
2023/09/17 19:10:00,57.6,22.0
2023/09/17 19:20:00,57.6,22.0
2023/09/17 19:30:00,57.7,21.7
2023/09/17 19:40:00,57.6,21.5
2023/09/17 19:50:00,57.6,21.4
2023/09/17 20:00:00,57.6,21.4
2023/09/17 20:10:00,57.7,21.2
2023/09/17 20:20:00,57.7,21.2
2023/09/17 20:30:00,57.6,21.0
2023/09/17 20:40:00,57.6,21.1
2023/09/17 20:50:00,57.6,20.9
2023/09/17 21:00:00,57.6,20.8
2023/09/17 21:10:00,57.6,20.9
2023/09/17 21:20:00,57.6,21.1
2023/09/17 21:30:00,57.6,21.2
2023/09/17 21:40:00,57.5,21.0
2023/09/17 21:50:00,57.5,20.7
2023/09/17 22:00:00,57.6,20.8
2023/09/17 22:10:00,57.5,20.5
2023/09/17 22:20:00,57.6,20.4
2023/09/17 22:30:00,57.5,20.2
2023/09/17 22:40:00,57.4,20.8
2023/09/17 22:50:00,57.5,20.6
2023/09/17 23:00:00,57.6,20.6
2023/09/17 23:10:00,57.5,20.7
2023/09/17 23:20:00,57.3,20.8
2023/09/17 23:30:00,57.5,20.5
2023/09/17 23:40:00,57.5,20.5
2023/09/17 23:50:00,57.5,20.4
